Location: Irma
(52.9170°N, 111.2330°W)
Time: 13:18:32
(UTC-07:00)

Amateur Radio Satellites - All Passes

Search period start: 25 January 2015 12:48
Search period end: 26 January 2015 12:48
Location: Irma, 52.9170°N, 111.2330°W

Satellite Date Start Highest point End Downlink Frequencies (MHz)
Time Altitude Azimuth
CUBEBUG 1 25 Jan 12:48:56 12:53:05 39° 294° (WNW) 12:57:14 437.445
SPROUT 25 Jan 12:51:19 12:55:43 73° 103° (ESE) 13:00:04 437.525
SO-50 25 Jan 12:53:30 12:58:10 86° 314° (NW) 13:03:00 436.795
HO-68 25 Jan 12:53:52 12:57:28 14° 326° (NW) 13:00:51 435.675
CUBEBUG 2 25 Jan 12:56:15 12:56:41 10° 312° (NW) 12:56:56 437.445
AIST 2 25 Jan 12:58:10 13:02:20 47° 235° (SW) 13:06:25 435.215
Gurwin Techsat 1B 25 Jan 13:06:42 13:11:35 39° 63° (ENE) 13:16:32 435.225
HORYU 2 25 Jan 13:12:36 13:15:23 17° 55° (NE) 13:18:17 437.375
AIST 1 25 Jan 13:13:56 13:17:52 35° 290° (WNW) 13:21:48
ESTCUBE 1 25 Jan 13:22:45 13:26:16 22° 301° (WNW) 13:29:41 437.505/2401.250
CUSAT 1 25 Jan 13:23:32 13:27:51 16° 38° (NE) 13:31:55 437.405
BEESAT 2 25 Jan 13:26:13 13:28:40 15° 246° (WSW) 13:30:58 435.950
RS-15 25 Jan 13:33:27 13:44:41 76° 40° (NE) 13:56:27 29.354- 29.394
AISAT 25 Jan 13:35:27 13:36:42 11° 310° (NW) 13:37:46 437.250
VERMONT LUNAR 25 Jan 13:37:04 13:38:06 11° 185° (S) 13:39:07 437.305
TISAT 1 25 Jan 13:43:39 13:47:42 40° 293° (WNW) 13:51:42 437.305
AO-7 25 Jan 13:44:14 13:51:37 37° 50° (NE) 13:59:06 29.400- 29.500
SWISSCUBE 25 Jan 13:45:08 13:49:45 46° 99° (E) 13:54:22 437.505
PCSat 25 Jan 13:52:02 13:57:31 81° 49° (NE) 14:02:58 145.827
KKS-1 25 Jan 13:56:03 13:58:26 14° 86° (E) 14:00:58 437.445
STARS 25 Jan 14:00:33 14:01:26 11° 83° (E) 14:02:33 437.465
BEESAT 25 Jan 14:01:45 14:06:30 59° 101° (ESE) 14:11:14 436.000
ITUPSAT 1 25 Jan 14:02:54 14:07:39 60° 101° (ESE) 14:12:24 437.325
JAS-2 25 Jan 14:03:22 14:05:37 13° 48° (NE) 14:08:02 435.910
Oscar 19 25 Jan 14:08:54 14:13:12 25° 269° (W) 14:17:25 437.125/150
PHONESAT 2.4 25 Jan 14:10:31 14:11:52 12° 185° (S) 14:13:12 2401.200-2431.200
DANDE 25 Jan 14:14:04 14:20:30 26° 49° (NE) 14:26:02 436.750
ITAMSAT 1 25 Jan 14:14:15 14:19:16 50° 260° (W) 14:24:21 435.822/435.867
GONETS M04 25 Jan 14:19:32 14:27:39 45° 273° (W) 14:35:38
SPROUT 25 Jan 14:28:19 14:31:23 19° 302° (WNW) 14:34:21 437.525
SO-50 25 Jan 14:35:13 14:39:22 29° 338° (NNW) 14:43:35 436.795
Gurwin Techsat 1B 25 Jan 14:46:35 14:51:36 41° 264° (W) 14:56:37 435.225
HORYU 2 25 Jan 14:46:59 14:51:31 89° 244° (WSW) 14:56:04 437.375
CUSAT 1 25 Jan 15:05:55 15:13:12 51° 65° (ENE) 15:18:52 437.405
SWISSCUBE 25 Jan 15:23:18 15:27:30 30° 298° (WNW) 15:31:38 437.505
KKS-1 25 Jan 15:31:15 15:35:48 87° 286° (WNW) 15:40:19 437.445
M-CUBED/EXP-1 PRIME 25 Jan 15:31:36 15:34:23 24° 101° (E) 15:37:11 437.505
STARS 25 Jan 15:34:22 15:38:52 72° 103° (ESE) 15:43:18 437.465
AO-7 25 Jan 15:35:31 15:43:55 76° 252° (WSW) 15:52:22 29.400- 29.500
PCSat 25 Jan 15:36:12 15:40:26 23° 250° (WSW) 15:44:32 145.827
BEESAT 25 Jan 15:40:11 15:44:04 25° 301° (WNW) 15:47:52 436.000
ITUPSAT 1 25 Jan 15:41:23 15:45:16 25° 301° (WNW) 15:49:05 437.325
JAS-2 25 Jan 15:44:31 15:49:54 60° 69° (ENE) 15:55:02 435.910
RS-15 25 Jan 15:46:09 15:56:40 46° 245° (WSW) 16:07:28 29.354- 29.394
Cubesat XI-IV 25 Jan 15:47:03 15:50:14 17° 50° (NE) 15:53:36 437.490
DANDE 25 Jan 15:57:25 16:05:22 89° 74° (ENE) 16:11:26 436.750
CUTE-I 25 Jan 16:07:19 16:11:15 22° 55° (NE) 16:15:19 437.470
AUBIESAT-1 25 Jan 16:08:03 16:11:20 55° 108° (ESE) 16:14:36 437.475
SO-50 25 Jan 16:17:39 16:21:18 21° 2° (N) 16:24:59 436.795
GONETS M04 25 Jan 16:21:14 16:22:14 10° 296° (WNW) 16:22:39
HORYU 2 25 Jan 16:26:35 16:28:57 14° 275° (W) 16:31:08 437.375
MOZHAYETS 4 25 Jan 16:40:30 16:44:26 28° 93° (E) 16:48:24
CUSAT 1 25 Jan 16:49:24 16:56:05 39° 273° (W) 17:01:18 437.405
O/OREOS (USA 219) 25 Jan 16:49:44 16:53:16 24° 105° (ESE) 16:56:56 437.305
M-CUBED/EXP-1 PRIME 25 Jan 17:06:30 17:09:29 30° 300° (WNW) 17:12:25 437.505
KKS-1 25 Jan 17:09:06 17:11:52 16° 305° (NW) 17:14:31 437.445
STARS 25 Jan 17:11:41 17:14:55 19° 303° (WNW) 17:18:03 437.465
Cubesat XI-IV 25 Jan 17:24:16 17:29:33 72° 71° (ENE) 17:34:56 437.490
JAS-2 25 Jan 17:31:01 17:35:31 25° 269° (W) 17:39:44 435.910
AO-7 25 Jan 17:32:12 17:38:20 21° 276° (W) 17:44:07 29.400- 29.500
DANDE 25 Jan 17:41:59 17:47:41 23° 282° (WNW) 17:52:20 436.750
AUBIESAT-1 25 Jan 17:43:52 17:46:00 16° 307° (NW) 17:48:03 437.475
CUTE-I 25 Jan 17:45:29 17:50:49 82° 253° (WSW) 17:56:13 437.470
SO-50 25 Jan 17:58:50 18:03:11 31° 25° (NNE) 18:07:36 436.795
RS-15 25 Jan 18:03:27 18:06:17 11° 268° (W) 18:08:05 29.354- 29.394
BRITE-PL 25 Jan 18:03:40 18:06:06 14° 48° (NE) 18:08:48 437.365/2234.400
HO-68 25 Jan 18:06:17 18:11:37 24° 46° (NE) 18:17:06 435.675
MOZHAYETS 4 25 Jan 18:17:30 18:21:52 44° 292° (WNW) 18:26:11
GOMX 1 25 Jan 18:19:50 18:22:16 14° 49° (NE) 18:24:56 467.674
CUBESAT XI-V 25 Jan 18:21:18 18:25:11 26° 91° (E) 18:29:09 437.345
STRAND 1 25 Jan 18:27:40 18:31:40 23° 90° (E) 18:35:45 437.568
O/OREOS (USA 219) 25 Jan 18:27:59 18:32:24 55° 305° (NW) 18:36:54 437.305
PRISM 25 Jan 18:30:09 18:34:00 36° 97° (E) 18:37:52 437.425
COMPASS 1 25 Jan 18:42:42 18:43:49 11° 53° (NE) 18:45:06 437.405
CANX-2 25 Jan 18:43:16 18:45:47 16° 57° (ENE) 18:48:25 2200.000
DOVE 4 25 Jan 18:50:08 18:53:17 17° 53° (NE) 18:56:40 437.250
Cubesat XI-IV 25 Jan 19:06:10 19:10:17 22° 271° (W) 19:14:19 437.490
CUTE 1.7 + AOD 2 25 Jan 19:07:05 19:10:23 22° 61° (ENE) 19:13:45 437.475
CINEMA 3 25 Jan 19:07:33 19:10:09 15° 52° (NE) 19:12:57 145.822/145.860
AAUSAT CUBESAT 2 25 Jan 19:10:23 19:13:00 17° 58° (ENE) 19:15:44 437.432
CUBEBUG 2 25 Jan 19:12:36 19:12:42 10° 48° (NE) 19:12:59 437.445
CUTE-I 25 Jan 19:28:41 19:31:52 15° 276° (W) 19:34:50 437.470
YUBILEINY 25 Jan 19:29:40 19:37:26 40° 85° (E) 19:45:23 435.215
DELFI C3 25 Jan 19:29:46 19:31:09 12° 54° (NE) 19:32:40 145.870
UKube-1 25 Jan 19:29:54 19:31:03 11° 51° (NE) 19:32:21 .
ZACube-1 25 Jan 19:36:26 19:37:45 11° 51° (NE) 19:39:15 437.345
BRITE-PL 25 Jan 19:38:35 19:43:32 57° 69° (ENE) 19:48:55 437.365/2234.400
SO-50 25 Jan 19:39:21 19:44:17 85° 227° (SW) 19:49:13 436.795
SEEDS 25 Jan 19:42:35 19:46:31 38° 67° (ENE) 19:50:30 437.485
DX 1 25 Jan 19:44:28 19:46:51 15° 54° (NE) 19:49:22 434.975-435.025
FUNcube-1 25 Jan 19:48:41 19:50:57 14° 53° (NE) 19:53:20 145.935
HO-68 25 Jan 19:51:18 19:58:26 77° 68° (ENE) 20:05:37 435.675
GOMX 1 25 Jan 19:54:22 19:59:20 57° 69° (ENE) 20:04:39 467.674
UWE-3 25 Jan 19:57:33 20:00:45 19° 57° (ENE) 20:04:04 435.000/436.395/437.385
CUBESAT XI-V 25 Jan 19:58:23 20:02:55 50° 291° (WNW) 20:07:27 437.345
PRISM 25 Jan 20:05:50 20:09:28 30° 296° (WNW) 20:13:04 437.425
STRAND 1 25 Jan 20:06:15 20:11:23 66° 290° (WNW) 20:16:29 437.568
HUMSAT D 25 Jan 20:10:01 20:11:42 12° 53° (NE) 20:13:32 437.325/437.525
O/OREOS (USA 219) 25 Jan 20:10:18 20:12:54 15° 328° (NNW) 20:15:26 437.305
COMPASS 1 25 Jan 20:14:37 20:18:48 63° 72° (ENE) 20:23:00 437.405
CANX-2 25 Jan 20:16:53 20:21:12 87° 252° (WSW) 20:25:33 2200.000
VELOX 1 25 Jan 20:20:35 20:22:47 14° 53° (NE) 20:25:08 145.980
50 SAT 25 Jan 20:22:52 20:24:15 12° 54° (NE) 20:25:45 437.505
DOVE 4 25 Jan 20:25:13 20:30:16 76° 72° (ENE) 20:35:35 437.250
Oscar 11 25 Jan 20:29:10 20:33:17 44° 68° (ENE) 20:37:27 145.826/435.025
CINEMA 3 25 Jan 20:41:38 20:46:32 67° 72° (ENE) 20:51:35 145.822/145.860
CUTE 1.7 + AOD 2 25 Jan 20:41:48 20:46:02 56° 260° (W) 20:50:17 437.475
CUBEBUG 1 25 Jan 20:43:11 20:43:26 10° 50° (NE) 20:43:53 437.445
CUBEBUG 2 25 Jan 20:43:50 20:48:22 46° 68° (ENE) 20:53:00 437.445
AAUSAT CUBESAT 2 25 Jan 20:43:59 20:48:12 78° 256° (WSW) 20:52:27 437.432
DELFI C3 25 Jan 21:01:39 21:05:43 71° 73° (ENE) 21:09:49 145.870
UKube-1 25 Jan 21:02:09 21:06:24 59° 70° (ENE) 21:10:42 .
ZACube-1 25 Jan 21:08:45 21:13:15 55° 70° (ENE) 21:17:49 437.345
ESTCUBE 1 25 Jan 21:15:43 21:18:54 20° 58° (ENE) 21:22:12 437.505/2401.250
BRITE-PL 25 Jan 21:18:07 21:22:28 27° 271° (W) 21:27:01 437.365/2234.400
DX 1 25 Jan 21:18:08 21:22:30 84° 73° (ENE) 21:26:55 434.975-435.025
SEEDS 25 Jan 21:18:40 21:22:27 29° 266° (W) 21:26:13 437.485
SO-50 25 Jan 21:20:55 21:24:16 18° 246° (WSW) 21:27:30 436.795
FUNcube-1 25 Jan 21:21:59 21:26:34 71° 73° (ENE) 21:31:12 145.935
AISAT 25 Jan 21:24:09 21:28:21 42° 66° (ENE) 21:32:37 437.250
YUBILEINY 25 Jan 21:25:24 21:34:00 62° 288° (WNW) 21:42:39 435.215
UWE-3 25 Jan 21:32:05 21:36:46 82° 254° (WSW) 21:41:32 435.000/436.395/437.385
GOMX 1 25 Jan 21:33:32 21:37:52 27° 271° (W) 21:42:22 467.674
AIST 1 25 Jan 21:37:33 21:40:20 17° 60° (ENE) 21:43:16
CUBESAT XI-V 25 Jan 21:38:37 21:39:27 10° 311° (NW) 21:40:04 437.345
HO-68 25 Jan 21:40:53 21:46:58 28° 270° (W) 21:52:54 435.675
HUMSAT D 25 Jan 21:42:27 21:46:47 67° 71° (ENE) 21:51:08 437.325/437.525
STRAND 1 25 Jan 21:46:53 21:49:46 15° 310° (NW) 21:52:30 437.568
COMPASS 1 25 Jan 21:52:00 21:54:59 18° 272° (W) 21:57:51 437.405
VELOX 1 25 Jan 21:54:16 21:58:42 75° 72° (ENE) 22:03:11 145.980
50 SAT 25 Jan 21:54:33 21:58:40 68° 73° (ENE) 22:02:49 437.505
CANX-2 25 Jan 21:55:59 21:57:55 12° 276° (W) 21:59:39 2200.000
DOVE 4 25 Jan 22:04:55 22:08:42 20° 274° (W) 22:12:29 437.250
Oscar 11 25 Jan 22:05:57 22:09:40 26° 267° (W) 22:13:22 145.826/435.025
UNISAT 6 25 Jan 22:13:29 22:16:54 21° 89° (E) 22:20:21 437.425
CUBEBUG 1 25 Jan 22:14:43 22:18:57 53° 69° (ENE) 22:23:15 437.445
SPROUT 25 Jan 22:17:01 22:20:02 19° 59° (ENE) 22:23:10 437.525
NANOSAT C BR1 25 Jan 22:19:38 22:22:03 15° 86° (E) 22:24:36 145.865
CINEMA 3 25 Jan 22:20:24 22:24:16 22° 272° (W) 22:28:06 145.822/145.860
CUBEBUG 2 25 Jan 22:21:06 22:25:17 29° 268° (W) 22:29:28 437.445
AAUSAT CUBESAT 2 25 Jan 22:23:36 22:24:42 11° 277° (W) 22:25:36 437.432
QB50P2 25 Jan 22:31:13 22:34:18 19° 89° (E) 22:37:28 145.880/145.840
DELFI C3 25 Jan 22:39:01 22:41:31 15° 273° (W) 22:43:53 145.870
UKube-1 25 Jan 22:39:43 22:42:59 20° 270° (W) 22:46:11 .
QB50P1 25 Jan 22:41:42 22:45:10 23° 91° (E) 22:48:41 145.935-145.965
ZACube-1 25 Jan 22:46:16 22:50:00 23° 270° (W) 22:53:40 437.345
ANTELSAT 25 Jan 22:48:39 22:52:59 41° 97° (E) 22:57:12 437.575/2403.000
ESTCUBE 1 25 Jan 22:50:54 22:55:24 71° 258° (WSW) 22:59:55 437.505/2401.250
POLYITAN 1 25 Jan 22:53:37 22:57:27 30° 94° (E) 23:01:17 437.675
DX 1 25 Jan 22:57:00 22:59:27 14° 274° (W) 23:01:45 434.975-435.025
TIGRISAT 25 Jan 22:58:41 23:03:08 50° 99° (E) 23:07:28 435.000
FUNcube-1 25 Jan 23:00:12 23:03:28 18° 273° (W) 23:06:38 145.935
AISAT 25 Jan 23:01:15 23:05:09 29° 266° (W) 23:09:03 437.250
TISAT 1 25 Jan 23:06:10 23:10:14 47° 69° (ENE) 23:14:23 437.305
UWE-3 25 Jan 23:11:48 23:14:10 13° 277° (W) 23:16:22 435.000/436.395/437.385
BUGSAT 1 25 Jan 23:13:28 23:17:24 35° 96° (E) 23:21:23 437.445
AIST 1 25 Jan 23:14:16 23:18:36 72° 262° (W) 23:22:56
POPSAT HIP 1 25 Jan 23:15:35 23:19:47 46° 99° (E) 23:23:57 437.405
HUMSAT D 25 Jan 23:20:02 23:23:04 18° 272° (W) 23:26:01 437.325/437.525
DUCHIFAT 1 25 Jan 23:20:32 23:24:46 51° 100° (E) 23:28:58 145.980
SWISSCUBE 25 Jan 23:21:52 23:25:10 19° 56° (NE) 23:28:35 437.505
YUBILEINY 25 Jan 23:27:05 23:33:09 19° 316° (NW) 23:38:58 435.215
50 SAT 25 Jan 23:31:37 23:34:18 16° 272° (W) 23:36:53 437.505
ISS 25 Jan 23:32:57 23:34:27 13° 141° (SE) 23:36:03 145.825
VELOX 1 25 Jan 23:33:01 23:35:54 16° 273° (W) 23:38:39 145.980
BEESAT 25 Jan 23:37:55 23:41:38 24° 59° (ENE) 23:45:27 436.000
ITUPSAT 1 25 Jan 23:39:20 23:43:04 24° 59° (ENE) 23:46:54 437.325
GONETS M04 25 Jan 23:41:52 23:44:27 12° 66° (ENE) 23:47:36
UNISAT 6 25 Jan 23:49:38 23:54:09 58° 290° (WNW) 23:58:31 437.425
SPROUT 25 Jan 23:51:26 23:55:44 69° 257° (WSW) 00:00:06 437.525
CUBEBUG 1 25 Jan 23:52:14 23:55:41 22° 269° (W) 23:59:05 437.445
NANOSAT C BR1 25 Jan 23:54:13 23:58:33 79° 287° (WNW) 00:02:52 145.865
QB50P2 26 Jan 00:06:22 00:10:39 60° 289° (WNW) 00:14:55 145.880/145.840
QB50P1 26 Jan 00:17:09 00:21:21 49° 291° (WNW) 00:25:31 145.935-145.965
ANTELSAT 26 Jan 00:25:41 00:29:42 30° 297° (WNW) 00:33:34 437.575/2403.000
POLYITAN 1 26 Jan 00:29:27 00:33:31 38° 294° (WNW) 00:37:31 437.675
ESTCUBE 1 26 Jan 00:32:20 00:33:14 10° 278° (W) 00:33:54 437.505/2401.250
Oscar 19 26 Jan 00:35:15 00:37:42 14° 83° (E) 00:40:23 437.125/150
TIGRISAT 26 Jan 00:35:51 00:39:41 26° 299° (WNW) 00:43:21 435.000
TISAT 1 26 Jan 00:42:50 00:46:20 24° 268° (W) 00:49:48 437.305
BUGSAT 1 26 Jan 00:49:04 00:52:53 32° 295° (WNW) 00:56:41 437.445
POPSAT HIP 1 26 Jan 00:51:52 00:55:31 26° 298° (WNW) 00:59:05 437.405
M-CUBED/EXP-1 PRIME 26 Jan 00:52:49 00:55:21 17° 54° (NE) 00:57:49 437.505
DUCHIFAT 1 26 Jan 00:56:53 01:00:24 24° 299° (WNW) 01:03:50 145.980
SWISSCUBE 26 Jan 00:57:47 01:02:33 81° 255° (WSW) 01:07:21 437.505
KKS-1 26 Jan 00:59:40 01:03:27 28° 62° (ENE) 01:07:20 437.445
STARS 26 Jan 01:02:16 01:05:39 22° 59° (ENE) 01:09:07 437.465
ISS 26 Jan 01:07:14 01:10:23 42° 159° (SSE) 01:13:32 145.825
O/OREOS (USA 219) 26 Jan 01:13:33 01:17:24 26° 44° (NE) 01:21:18 437.305
BEESAT 26 Jan 01:14:26 01:19:10 63° 258° (WSW) 01:23:56 436.000
ITUPSAT 1 26 Jan 01:15:56 01:20:40 62° 258° (WSW) 01:25:25 437.325
AUBIESAT-1 26 Jan 01:28:08 01:31:34 29° 59° (ENE) 01:34:49 437.475
UNISAT 6 26 Jan 01:28:29 01:30:04 12° 310° (NW) 01:31:30 437.425
GONETS M04 26 Jan 01:31:00 01:39:15 50° 89° (E) 01:47:34
NANOSAT C BR1 26 Jan 01:31:33 01:33:48 14° 306° (NW) 01:35:55 145.865
QB50P2 26 Jan 01:44:26 01:45:48 11° 308° (NW) 01:46:59 145.880/145.840
Oscar 19 26 Jan 02:12:51 02:18:04 77° 104° (ESE) 02:23:13 437.125/150
MOZHAYETS 4 26 Jan 02:15:29 02:16:19 11° 50° (NE) 02:17:20
ITAMSAT 1 26 Jan 02:20:43 02:25:34 38° 96° (E) 02:30:27 435.822/435.867
M-CUBED/EXP-1 PRIME 26 Jan 02:25:59 02:30:03 71° 249° (WSW) 02:33:47 437.505
HORYU 2 26 Jan 02:34:24 02:36:02 12° 84° (E) 02:37:52 437.375
KKS-1 26 Jan 02:35:38 02:39:58 46° 261° (W) 02:44:20 437.445
STARS 26 Jan 02:37:23 02:41:48 62° 259° (WSW) 02:46:15 437.465
SWISSCUBE 26 Jan 02:39:00 02:41:19 13° 276° (W) 02:43:25 437.505
CUSAT 1 26 Jan 02:42:56 02:45:37 12° 70° (ENE) 02:48:49 437.405
ISS 26 Jan 02:43:25 02:46:44 72° 179° (S) 02:50:02 145.825
O/OREOS (USA 219) 26 Jan 02:52:41 02:57:14 63° 245° (WSW) 03:01:46 437.305
Gurwin Techsat 1B 26 Jan 02:56:02 03:01:15 52° 99° (E) 03:06:27 435.225
AUBIESAT-1 26 Jan 03:02:49 03:06:30 34° 256° (WSW) 03:09:55 437.475
BEESAT 2 26 Jan 03:25:31 03:28:54 25° 119° (ESE) 03:32:22 435.950
GONETS M04 26 Jan 03:27:44 03:36:14 50° 293° (WNW) 03:44:40
AO-7 26 Jan 03:30:42 03:37:22 26° 88° (E) 03:44:13 29.400- 29.500
DANDE 26 Jan 03:33:12 03:39:13 23° 79° (ENE) 03:45:40 436.750
YUBILEINY 26 Jan 03:36:50 03:37:34 10° 24° (NNE) 03:38:38 435.215
BEESAT 3 26 Jan 03:42:52 03:46:40 37° 123° (ESE) 03:50:33 437.485
MOZHAYETS 4 26 Jan 03:48:12 03:52:40 53° 69° (ENE) 03:57:09
Oscar 19 26 Jan 03:52:58 03:56:57 22° 304° (NW) 04:00:49 437.125/150
PRISM 26 Jan 03:54:45 03:55:43 11° 52° (NE) 03:56:50 437.425
ITAMSAT 1 26 Jan 04:00:15 04:05:09 41° 296° (WNW) 04:10:02 435.822/435.867
HORYU 2 26 Jan 04:09:03 04:13:34 81° 105° (ESE) 04:18:01 437.375
RS-15 26 Jan 04:09:36 04:16:07 19° 99° (E) 04:23:15 29.354- 29.394
STRAND 1 26 Jan 04:13:42 04:16:01 13° 48° (NE) 04:18:29 437.568
CUSAT 1 26 Jan 04:19:14 04:26:55 46° 90° (E) 04:34:48 437.405
ISS 26 Jan 04:19:54 04:23:05 46° 199° (SSW) 04:26:17 145.825
JAS-2 26 Jan 04:30:53 04:35:36 30° 93° (E) 04:40:47 435.910
Gurwin Techsat 1B 26 Jan 04:36:22 04:41:04 32° 299° (WNW) 04:45:41 435.225
AIST 2 26 Jan 04:39:45 04:43:53 51° 126° (SE) 04:48:06 435.215
PCSat 26 Jan 04:41:19 04:45:04 20° 109° (ESE) 04:48:58 145.827
BEESAT 2 26 Jan 05:02:44 05:06:52 60° 319° (NW) 05:11:03 435.950
DANDE 26 Jan 05:13:20 05:21:35 77° 99° (E) 05:30:16 436.750
BEESAT 3 26 Jan 05:20:49 05:24:48 43° 324° (NW) 05:28:50 437.485
AO-7 26 Jan 05:22:57 05:31:23 89° 290° (WNW) 05:39:44 29.400- 29.500
PRISM 26 Jan 05:26:26 05:30:30 63° 71° (ENE) 05:34:36 437.425
MOZHAYETS 4 26 Jan 05:26:28 05:30:14 24° 269° (W) 05:33:55
CUBESAT XI-V 26 Jan 05:30:34 05:34:59 48° 68° (ENE) 05:39:27 437.345
GONETS M04 26 Jan 05:30:36 05:35:51 16° 321° (NW) 05:40:48
YUBILEINY 26 Jan 05:31:03 05:38:26 30° 55° (NE) 05:45:59 435.215
Cubesat XI-IV 26 Jan 05:36:14 05:39:49 18° 86° (E) 05:43:34 437.490
ITAMSAT 1 26 Jan 05:42:59 05:43:29 10° 316° (NW) 05:43:46 435.822/435.867
HORYU 2 26 Jan 05:46:42 05:49:44 18° 304° (NW) 05:52:39 437.375
STRAND 1 26 Jan 05:49:18 05:54:17 58° 69° (ENE) 05:59:21 437.568
CUTE-I 26 Jan 05:56:48 06:01:13 26° 91° (E) 06:05:42 437.470
ISS 26 Jan 05:57:07 05:59:05 15° 217° (SW) 06:00:57 145.825
CUSAT 1 26 Jan 06:01:42 06:09:54 59° 291° (WNW) 06:18:09 437.405
RS-15 26 Jan 06:15:42 06:26:22 65° 123° (ESE) 06:37:16 29.354- 29.394
JAS-2 26 Jan 06:15:50 06:21:04 54° 292° (WNW) 06:26:46 435.910
AIST 2 26 Jan 06:18:41 06:22:41 36° 327° (NNW) 06:26:44 435.215
PCSat 26 Jan 06:22:26 06:27:52 90° 213° (SSW) 06:33:22 145.827
BEESAT 2 26 Jan 06:42:37 06:45:52 21° 341° (NNW) 06:49:07 435.950
DANDE 26 Jan 06:58:08 07:05:54 37° 302° (WNW) 07:13:43 436.750
BEESAT 3 26 Jan 07:00:58 07:03:56 18° 347° (NNW) 07:06:54 437.485
PRISM 26 Jan 07:03:41 07:06:29 17° 271° (W) 07:09:12 437.425
CUBESAT XI-V 26 Jan 07:08:48 07:12:42 26° 268° (W) 07:16:34 437.345
Cubesat XI-IV 26 Jan 07:15:18 07:20:43 85° 290° (WNW) 07:26:07 437.490
AO-7 26 Jan 07:16:18 07:23:23 32° 314° (NW) 07:30:19 29.400- 29.500
YUBILEINY 26 Jan 07:27:42 07:36:32 86° 259° (W) 07:45:21 435.215
STRAND 1 26 Jan 07:29:40 07:33:54 25° 269° (W) 07:38:06 437.568
CUTE-I 26 Jan 07:36:25 07:41:45 62° 291° (WNW) 07:47:03 437.470
BRITE-PL 26 Jan 07:38:27 07:41:35 15° 81° (E) 07:44:56 437.365/2234.400
CUSAT 1 26 Jan 07:48:41 07:54:52 21° 315° (NW) 08:00:40 437.405
GOMX 1 26 Jan 07:51:50 07:54:25 14° 80° (E) 07:57:13 467.674
CANX-2 26 Jan 07:58:31 07:59:49 11° 83° (E) 08:01:18 2200.000
AIST 2 26 Jan 07:59:24 08:02:26 18° 350° (N) 08:05:26 435.215
JAS-2 26 Jan 08:03:00 08:05:17 13° 312° (NW) 08:07:27 435.910
PCSat 26 Jan 08:07:14 08:11:59 29° 332° (NNW) 08:16:44 145.827
ANTELSAT 26 Jan 08:19:14 08:21:50 15° 54° (NE) 08:24:35 437.575/2403.000
DOVE 4 26 Jan 08:19:43 08:22:58 17° 83° (E) 08:26:19 437.250
CUTE 1.7 + AOD 2 26 Jan 08:22:01 08:24:51 18° 88° (E) 08:27:46 437.475
BEESAT 2 26 Jan 08:22:44 08:25:28 16° 5° (N) 08:28:12 435.950
AAUSAT CUBESAT 2 26 Jan 08:23:21 08:24:47 12° 84° (E) 08:26:25 437.432
RS-15 26 Jan 08:28:18 08:39:07 60° 331° (NNW) 08:50:13 29.354- 29.394
TIGRISAT 26 Jan 08:28:33 08:31:33 17° 56° (NE) 08:34:40 435.000
CINEMA 3 26 Jan 08:32:56 08:34:43 12° 80° (E) 08:36:43 145.822/145.860
BEESAT 3 26 Jan 08:40:39 08:43:29 17° 10° (N) 08:46:20 437.485
POPSAT HIP 1 26 Jan 08:41:17 08:43:19 13° 54° (NE) 08:45:29 437.405
DUCHIFAT 1 26 Jan 08:45:43 08:47:57 14° 55° (NE) 08:50:20 145.980
DANDE 26 Jan 08:47:49 08:52:14 14° 327° (NNW) 08:56:18 436.750
Cubesat XI-IV 26 Jan 08:56:23 09:00:11 20° 307° (NW) 09:03:51 437.490
SEEDS 26 Jan 08:56:51 09:00:37 31° 94° (E) 09:04:23 437.485
HO-68 26 Jan 08:59:55 09:06:46 46° 98° (E) 09:13:37 435.675
AO-7 26 Jan 09:09:41 09:13:40 14° 341° (NNW) 09:17:30 29.400- 29.500
BRITE-PL 26 Jan 09:15:24 09:21:09 75° 102° (ESE) 09:26:48 437.365/2234.400
UWE-3 26 Jan 09:17:41 09:20:14 15° 84° (E) 09:22:54 435.000/436.395/437.385
UNISAT 6 26 Jan 09:17:56 09:22:20 40° 66° (ENE) 09:26:44 437.425
CUTE-I 26 Jan 09:17:58 09:20:56 15° 311° (NW) 09:23:45 437.470
NANOSAT C BR1 26 Jan 09:17:58 09:21:28 25° 62° (ENE) 09:25:03 145.865
YUBILEINY 26 Jan 09:25:36 09:32:17 24° 283° (WNW) 09:38:43 435.215
GOMX 1 26 Jan 09:28:07 09:33:39 71° 101° (ESE) 09:39:02 467.674
COMPASS 1 26 Jan 09:28:07 09:32:14 52° 100° (E) 09:36:19 437.405
QB50P2 26 Jan 09:29:57 09:33:45 32° 64° (ENE) 09:37:37 145.880/145.840
CANX-2 26 Jan 09:32:18 09:36:35 83° 107° (ESE) 09:40:49 2200.000
GONETS M04 26 Jan 09:37:36 09:40:28 12° 29° (NNE) 09:43:39
AIST 2 26 Jan 09:39:17 09:42:28 19° 14° (NNE) 09:45:39 435.215
QB50P1 26 Jan 09:40:18 09:44:16 38° 66° (ENE) 09:48:17 145.935-145.965
Oscar 11 26 Jan 09:46:31 09:50:35 37° 97° (E) 09:54:36 145.826/435.025
POLYITAN 1 26 Jan 09:52:33 09:56:43 49° 68° (ENE) 10:00:56 437.675
ANTELSAT 26 Jan 09:53:14 09:57:59 77° 73° (ENE) 10:02:42 437.575/2403.000
PCSat 26 Jan 09:53:21 09:57:07 18° 357° (N) 10:00:53 145.827
DOVE 4 26 Jan 09:56:13 10:01:36 88° 104° (ESE) 10:06:46 437.250
AAUSAT CUBESAT 2 26 Jan 09:57:01 10:01:13 87° 100° (E) 10:05:23 437.432
CUTE 1.7 + AOD 2 26 Jan 09:57:02 10:01:16 64° 289° (WNW) 10:05:27 437.475
BEESAT 2 26 Jan 10:01:14 10:04:55 28° 28° (NNE) 10:08:36 435.950
TIGRISAT 26 Jan 10:03:00 10:07:45 90° 77° (ENE) 10:12:29 435.000
CUBEBUG 2 26 Jan 10:05:48 10:10:19 44° 97° (E) 10:14:40 437.445
CINEMA 3 26 Jan 10:07:59 10:13:00 72° 102° (ESE) 10:17:48 145.822/145.860
BUGSAT 1 26 Jan 10:09:29 10:13:30 55° 70° (ENE) 10:17:36 437.445
DELFI C3 26 Jan 10:11:11 10:15:11 53° 100° (E) 10:19:10 145.870
POPSAT HIP 1 26 Jan 10:14:16 10:18:33 77° 73° (ENE) 10:22:54 437.405
BEESAT 3 26 Jan 10:18:49 10:22:43 36° 33° (NNE) 10:26:35 437.485
DUCHIFAT 1 26 Jan 10:18:56 10:23:13 83° 74° (ENE) 10:27:33 145.980
UKube-1 26 Jan 10:19:57 10:24:10 45° 99° (E) 10:28:23 .
ZACube-1 26 Jan 10:28:01 10:32:27 50° 99° (E) 10:36:45 437.345
SEEDS 26 Jan 10:32:39 10:36:31 35° 294° (WNW) 10:40:20 437.485
DX 1 26 Jan 10:36:42 10:41:07 67° 103° (ESE) 10:45:30 434.975-435.025
ESTCUBE 1 26 Jan 10:38:35 10:41:28 17° 87° (E) 10:44:28 437.505/2401.250
FUNcube-1 26 Jan 10:41:05 10:45:37 65° 102° (ESE) 10:50:00 145.935
RS-15 26 Jan 10:43:23 10:53:52 46° 3° (N) 11:04:46 29.354- 29.394
AISAT 26 Jan 10:45:32 10:49:44 37° 96° (E) 10:53:57 437.250
HO-68 26 Jan 10:47:46 10:54:39 50° 299° (WNW) 11:01:27 435.675
UWE-3 26 Jan 10:52:53 10:57:32 85° 286° (WNW) 11:02:01 435.000/436.395/437.385
NANOSAT C BR1 26 Jan 10:53:00 10:57:09 48° 261° (W) 11:01:21 145.865
BRITE-PL 26 Jan 10:54:32 10:59:12 26° 302° (WNW) 11:03:44 437.365/2234.400
UNISAT 6 26 Jan 10:54:53 10:59:12 34° 265° (W) 11:03:28 437.425
HUMSAT D 26 Jan 10:56:48 11:01:03 55° 100° (E) 11:05:13 437.325/437.525
AO-7 26 Jan 11:00:06 11:02:55 12° 9° (N) 11:05:50 29.400- 29.500
50 SAT 26 Jan 11:03:17 11:07:17 49° 99° (E) 11:11:15 437.505
COMPASS 1 26 Jan 11:04:24 11:07:43 22° 299° (WNW) 11:10:56 437.405
QB50P2 26 Jan 11:05:39 11:09:39 36° 264° (W) 11:13:40 145.880/145.840
GOMX 1 26 Jan 11:06:49 11:11:21 26° 302° (WNW) 11:15:42 467.674
CANX-2 26 Jan 11:09:22 11:12:01 16° 303° (WNW) 11:14:34 2200.000
VELOX 1 26 Jan 11:15:27 11:19:57 66° 102° (ESE) 11:24:27 145.980
QB50P1 26 Jan 11:16:28 11:20:15 30° 266° (W) 11:24:04 145.935-145.965
AIST 2 26 Jan 11:17:53 11:22:04 46° 37° (NE) 11:26:12 435.215
Oscar 11 26 Jan 11:22:52 11:26:42 31° 296° (WNW) 11:30:29 145.826/435.025
POLYITAN 1 26 Jan 11:29:26 11:32:56 23° 269° (W) 11:36:24 437.675
ANTELSAT 26 Jan 11:32:09 11:35:23 18° 273° (W) 11:38:28 437.575/2403.000
GONETS M04 26 Jan 11:33:05 11:40:54 36° 60° (ENE) 11:48:48
SPROUT 26 Jan 11:33:25 11:35:51 15° 86° (E) 11:38:26 437.525
CUBEBUG 1 26 Jan 11:33:53 11:38:11 46° 99° (E) 11:42:29 437.445
AAUSAT CUBESAT 2 26 Jan 11:33:55 11:36:22 15° 303° (WNW) 11:38:41 437.432
DOVE 4 26 Jan 11:34:51 11:38:44 20° 305° (NW) 11:42:27 437.250
CUTE 1.7 + AOD 2 26 Jan 11:35:05 11:36:27 11° 307° (NW) 11:37:40 437.475
PCSat 26 Jan 11:37:57 11:42:23 25° 22° (NNE) 11:46:50 145.827
BEESAT 2 26 Jan 11:39:20 11:43:33 74° 230° (SW) 11:47:42 435.950
SO-50 26 Jan 11:39:49 11:44:05 39° 122° (ESE) 11:48:32 436.795
TIGRISAT 26 Jan 11:42:29 11:45:15 15° 275° (W) 11:47:50 435.000
CUBEBUG 2 26 Jan 11:42:46 11:46:54 30° 297° (WNW) 11:50:52 437.445
CINEMA 3 26 Jan 11:45:54 11:49:45 22° 302° (WNW) 11:53:25 145.822/145.860
BUGSAT 1 26 Jan 11:46:20 11:49:23 19° 270° (W) 11:52:24 437.445
DELFI C3 26 Jan 11:47:03 11:50:09 21° 299° (WNW) 11:53:11 145.870
AIST 1 26 Jan 11:50:06 11:54:11 47° 94° (E) 11:58:19
POPSAT HIP 1 26 Jan 11:52:27 11:55:04 15° 273° (W) 11:57:35 437.405
UKube-1 26 Jan 11:56:28 12:00:11 27° 298° (WNW) 12:03:50 .
BEESAT 3 26 Jan 11:56:57 12:01:00 48° 234° (SW) 12:05:00 437.485
Oscar 19 26 Jan 11:57:11 12:01:54 37° 63° (ENE) 12:06:41 437.125/150
DUCHIFAT 1 26 Jan 11:57:24 11:59:45 14° 274° (W) 12:01:57 145.980
ZACube-1 26 Jan 12:04:50 12:08:36 26° 298° (WNW) 12:12:13 437.345
ITAMSAT 1 26 Jan 12:07:14 12:11:01 21° 55° (NE) 12:14:54 435.822/435.867
DX 1 26 Jan 12:13:43 12:16:59 20° 302° (WNW) 12:20:10 434.975-435.025
ESTCUBE 1 26 Jan 12:14:24 12:18:57 75° 288° (WNW) 12:23:27 437.505/2401.250
FUNcube-1 26 Jan 12:18:10 12:21:35 21° 301° (WNW) 12:24:51 145.935
TISAT 1 26 Jan 12:20:46 12:24:47 37° 97° (E) 12:28:48 437.305
AISAT 26 Jan 12:22:15 12:26:22 34° 296° (WNW) 12:30:25 437.250
DANDE 26 Jan 12:27:29 12:28:05 10° 23° (NNE) 12:28:54 436.750
UWE-3 26 Jan 12:30:38 12:33:26 16° 305° (NW) 12:36:05 435.000/436.395/437.385
HUMSAT D 26 Jan 12:33:11 12:36:34 22° 299° (WNW) 12:39:49 437.325/437.525
HO-68 26 Jan 12:36:39 12:40:56 17° 322° (NW) 12:45:01 435.675
50 SAT 26 Jan 12:38:55 12:42:11 23° 299° (WNW) 12:45:21 437.505
